This is the latest recevied weather packets stored in our database for station/object N3LF. If no packets are shown the sender has not sent any weather packets the latest 10 day(s).
| Time | Temp. | Humidity | Pressure | Rain* | Wind** | Luminosity | Snow |
|---|---|---|---|---|---|---|---|
| 1788550106 | 37.78° C | 52% | 1017.4 hPa | 0 mm | - | 560 W/m² | - |
| 1788549801 | 38.33° C | 45% | 1017.6 hPa | 0 mm | - | 564 W/m² | - |
| 1788549498 | 37.78° C | 46% | 1017.6 hPa | 0 mm | - | 583 W/m² | - |
| 1788549194 | 37.78° C | 45% | 1017.7 hPa | 0 mm | - | 576 W/m² | - |
| 1788548890 | 38.89° C | 45% | 1017.7 hPa | 0 mm | - | 595 W/m² | - |
| 1788548586 | 37.78° C | 50% | 1017.8 hPa | 0 mm | - | 613 W/m² | - |
| 1788548282 | 36.11° C | 53% | 1018.1 hPa | 0 mm | - | 651 W/m² | - |
| 1788547977 | 36.11° C | 53% | 1018.3 hPa | 0 mm | - | 224 W/m² | - |
| 1788547676 | 36.67° C | 54% | 1018.1 hPa | 0 mm | - | 173 W/m² | - |
| 1788547372 | 37.22° C | 48% | 1018.3 hPa | 0 mm | - | 164 W/m² | - |
| 1788547068 | 37.22° C | 49% | 1018.4 hPa | 0 mm | - | 662 W/m² | - |
| 1788546768 | 37.78° C | 52% | 1018.4 hPa | 0 mm | - | 668 W/m² | - |
| 1788546463 | 37.78° C | 52% | 1018.3 hPa | 0 mm | - | 682 W/m² | - |
| 1788546164 | 37.78° C | 53% | 1018.3 hPa | 0 mm | - | 717 W/m² | - |
| 1788545854 | 36.11° C | 53% | 1018.3 hPa | 0 mm | - | 727 W/m² | - |
| 1788545553 | 35.56° C | 53% | 1018.6 hPa | 0 mm | - | 734 W/m² | - |
| 1788545249 | 36.67° C | 57% | 1018.5 hPa | 0 mm | - | 242 W/m² | - |
| 1788544944 | 37.78° C | 53% | 1018.7 hPa | 0 mm | - | 184 W/m² | - |
| 1788544643 | 37.78° C | 51% | 1018.6 hPa | 0 mm | - | 185 W/m² | - |
| 1788544341 | 36.67° C | 49% | 1018.7 hPa | 0 mm | - | 682 W/m² | - |
| 1788544037 | 36.67° C | 53% | 1018.7 hPa | 0 mm | - | 653 W/m² | - |
| 1788543733 | 36.67° C | 53% | 1018.5 hPa | 0 mm | - | 485 W/m² | - |
| 1788543428 | 35.56° C | 56% | 1018.8 hPa | 0 mm | - | 450 W/m² | - |
| 1788543123 | 35° C | 57% | 1018.7 hPa | 0 mm | - | 136 W/m² | - |
| 1788542820 | 37.22° C | 52% | 1018.8 hPa | 0 mm | - | 110 W/m² | - |
* Rain latest hour (hover to see other rain measurements)
** Current wind speed in m/s (hover to see current wind gust speed)